Location: Ku?niki
(51.4449°N, 17.8974°E)
Time: 03:40:13
(UTC+00:00)

Okean 1 Rocket - Pass Details

Date: 18 September 2020
Orbit: 606 x 635 km, 82.5° (Epoch: 22 October)

Event Time Altitude Azimuth Distance (km) Brightness Sun altitude
Exits shadow 19:51:19 33° 232° (SW) 1,071 4.3 -26.0°
Maximum altitude 19:52:56 49° 286° (WNW) 823 3.9 -26.2°
Drops below altitude 10° 19:57:20 10° 1° (N) 2,036 6.2 -26.7°
Sets 19:59:39 0° 7° (N) 2,948 7.0 -26.9°
